Powrót do katalogu

FENGYUN 1C DEB

AktywnyPO
NORAD 31491·DEBRIS·🇨🇳 China

Wystrzelony May 10, 1999 z Taiyuan Satellite Launch Center

Loading…

Następne Przeloty (najbliższe 24 godziny)

TLE

ŚwieżeSource: Space-Track

Epoka: Sep 12, 2026, 00:38 UTC

1 31491U 99025BWE 26255.02675466  .00001656  00000-0  80995-3 0  9991
2 31491  99.3000 181.6299 0048115 215.7143 144.0810 14.18823820676014

Śledź FENGYUN 1C DEB w czasie rzeczywistym z AllMySat

Download on the App Store